Regional Weather Roundup
Issued by NWS Goodland, KS

Home | Current Version | Previous Version | Text Only | Print | Product List | Glossary Off
Versions: 1 2 3 4 5 6 7 8 9 10 11 12 13 14 15 16 17 18 19 20 21 22 23 24 25 26 27 28 29 30 31 32 33 34 35 36 37 38 39 40 41 42 43 44 45 46 47 48 49 50

000
ASUS43 KGLD 261008
RWRGLD

GOODLAND FORECAST AREA HOURLY WEATHER ROUNDUP
NATIONAL WEATHER SERVICE GOODLAND KS
400 AM MDT TUE JUL 26 2016

...OFFICIAL OBSERVATIONS...

CITY           SKY/WX    TMP DP  RH WIND       PRES   REMARKS
GOODLAND KS    PTCLDY    66  64  93 S13       30.12F
HILL CITY KS   CLEAR     67  66  97 CALM      30.10S
IMPERIAL NEB   CLEAR     66  63  90 S7        30.11S
MCCOOK NEB     CLEAR     67  63  87 S6        30.10S
AKRON CO       CLEAR     61  53  75 S13       30.13S
BURLINGTON CO  CLEAR     66  63  90 S15       30.15S
LIMON CO       NOT AVBL
$$

...UNOFFICIAL OBSERVATIONS...

CITY           SKY/WX    TMP DP  RH WIND       PRES   REMARKS
COLBY KS       CLEAR     66  66 100 SE8       30.14R
GOVE KS          N/A     66  32  28 MISG        N/A
LENORA KS        N/A     66  32  28 MISG        N/A
NORTON KS      CLEAR     68  64  88 SE5       30.10
SHARON SPRINGS   N/A     67  65  94 S9          N/A
KIT CARSON CO    N/A     65  60  85 MISG        N/A
YUMA CO          N/A     64  62  95 SE6         N/A
$$



USA.gov is the U.S. government's official web portal to all federal, state and local government web resources and services.